User: anonymous
Location: Observatorio Las Palmas
(29.0667°N, 110.9333°W)
Time: 09:24:47
(UTC-07:00)
Language:

Skynet4D Del rocket - Orbit

View from above orbital plane
View from above orbital plane
View from above satellite
View from above satellite

Ground track
Ground track

The orbit data is extracted from the following two-line orbital elements,

1 25135U 98002B   14106.14857331  .00000179  00000-0  50782-4 0  1534
2 25135 026.8844 169.1508 0356546 172.2164 210.0647 13.62240850810484
Epoch (UTC): 16 April 2014 03:33:56
Eccentricity: 0.0356546
inclination: 26.8844°
perigee height: 763 km
apogee height: 1291 km
right ascension of ascending node: 169.1508°
argument of perigee: 172.2164°
revolutions per day: 13.62240850
mean anomaly at epoch: 210.0647°
orbit number at epoch: 81048

The dashed part of the orbit path shows where the satellite is in the earth's shadow,  

DLR